Time,TemperatureF,DewpointF,PressureIn,WindDirection,WindDirectionDegrees,WindSpeedMPH,WindSpeedGustMPH,Humidity,HourlyPrecipIn,Conditions,Clouds,dailyrainin,SolarRadiationWatts/m^2,SoftwareType,DateUTC
2013-08-01 00:02:00,83.0,65.0,-100.00,SSE,159,0.0,6.0,54,0.00,,,0.00,0.000000,,2013-08-01 05:02:00,
2013-08-01 01:33:00,81.0,66.0,-100.00,SE,128,5.0,6.0,60,0.00,,,0.00,0.000000,,2013-08-01 06:33:00,
2013-08-01 01:43:00,81.0,66.0,-100.00,SE,128,5.0,6.0,60,0.00,,,0.00,0.000000,,2013-08-01 06:43:00,
2013-08-01 01:53:00,81.0,66.0,-100.00,SE,128,5.0,6.0,60,0.00,,,0.00,0.000000,,2013-08-01 06:53:00,
2013-08-01 02:02:00,81.0,66.0,-100.00,SE,128,5.0,6.0,60,0.00,,,0.00,0.000000,,2013-08-01 07:02:00,
2013-08-01 02:32:00,81.0,62.0,-100.00,SSE,147,5.0,6.0,53,0.00,,,0.00,0.000000,,2013-08-01 07:32:00,
2013-08-01 02:43:00,81.0,62.0,-100.00,SSE,147,5.0,6.0,53,0.00,,,0.00,0.000000,,2013-08-01 07:43:00,
2013-08-01 02:55:00,81.0,62.0,-100.00,SSE,147,5.0,6.0,53,0.00,,,0.00,0.000000,,2013-08-01 07:55:00,
2013-08-01 03:07:00,79.0,59.0,-100.00,SE,146,2.0,6.0,51,0.00,,,0.00,0.000000,,2013-08-01 08:07:00,
2013-08-01 03:41:00,79.0,59.0,-100.00,SE,146,2.0,6.0,51,0.00,,,0.00,0.000000,,2013-08-01 08:41:00,
2013-08-01 03:48:00,79.0,59.0,-100.00,SE,146,2.0,6.0,51,0.00,,,0.00,0.000000,,2013-08-01 08:48:00,
2013-08-01 04:07:00,77.0,56.0,-100.00,South,184,5.0,6.0,49,0.00,,,0.00,0.000000,,2013-08-01 09:07:00,
2013-08-01 04:48:00,77.0,56.0,-100.00,South,184,5.0,6.0,49,0.00,,,0.00,0.000000,,2013-08-01 09:48:00,
2013-08-01 04:58:00,77.0,56.0,-100.00,South,184,5.0,6.0,49,0.00,,,0.00,0.000000,,2013-08-01 09:58:00,
2013-08-01 05:07:00,77.0,56.0,-100.00,SSW,204,2.0,5.0,48,0.00,,,0.00,0.000000,,2013-08-01 10:07:00,
2013-08-01 05:48:00,77.0,56.0,-100.00,SSW,204,2.0,5.0,48,0.00,,,0.00,0.000000,,2013-08-01 10:48:00,
2013-08-01 05:59:00,77.0,56.0,-100.00,SSW,204,2.0,5.0,48,0.00,,,0.00,0.000000,,2013-08-01 10:59:00,
2013-08-01 06:07:00,76.0,55.0,-100.00,ESE,116,0.0,7.0,49,0.00,,,0.00,0.000000,,2013-08-01 11:07:00,
2013-08-01 06:48:00,76.0,55.0,-100.00,ESE,116,0.0,7.0,49,0.00,,,0.00,0.000000,,2013-08-01 11:48:00,
2013-08-01 07:07:00,76.0,52.0,-100.00,West,264,0.0,0.0,43,0.00,,,0.00,1.000000,,2013-08-01 12:07:00,
2013-08-01 07:40:00,76.0,52.0,-100.00,West,264,0.0,0.0,43,0.00,,,0.00,1.000000,,2013-08-01 12:40:00,
2013-08-01 08:07:00,77.0,63.0,-100.00,NNW,347,4.0,7.0,62,0.00,,,0.00,65.000000,,2013-08-01 13:07:00,
2013-08-01 08:47:00,77.0,63.0,-100.00,NNW,347,4.0,7.0,62,0.00,,,0.00,65.000000,,2013-08-01 13:47:00,
2013-08-01 08:55:00,77.0,63.0,-100.00,NNW,347,4.0,7.0,62,0.00,,,0.00,65.000000,,2013-08-01 13:55:00,
2013-08-01 09:07:00,79.0,60.0,-100.00,NW,323,5.0,7.0,53,0.00,,,0.00,164.000000,,2013-08-01 14:07:00,
2013-08-01 11:53:00,88.0,68.0,-100.00,West,264,7.0,10.0,51,0.00,,,0.00,761.000000,,2013-08-01 16:53:00,
2013-08-01 12:07:00,91.0,67.0,-100.00,WSW,247,6.0,10.0,46,0.00,,,0.00,881.000000,,2013-08-01 17:07:00,
2013-08-01 12:49:00,91.0,67.0,-100.00,WSW,247,6.0,10.0,46,0.00,,,0.00,881.000000,,2013-08-01 17:49:00,
2013-08-01 12:59:00,91.0,67.0,-100.00,WSW,247,6.0,10.0,46,0.00,,,0.00,881.000000,,2013-08-01 17:59:00,
2013-08-01 13:07:00,95.0,66.0,-100.00,WSW,246,7.0,11.0,39,0.00,,,0.00,1000.000000,,2013-08-01 18:07:00,
2013-08-01 13:48:00,95.0,66.0,-100.00,WSW,246,7.0,11.0,39,0.00,,,0.00,1000.000000,,2013-08-01 18:48:00,
2013-08-01 13:55:00,95.0,66.0,-100.00,WSW,246,7.0,11.0,39,0.00,,,0.00,1000.000000,,2013-08-01 18:55:00,
2013-08-01 14:59:00,98.0,63.0,-100.00,WSW,247,4.0,11.0,32,0.00,,,0.00,1038.000000,,2013-08-01 19:59:00,
2013-08-01 15:42:00,100.0,62.0,-100.00,West,272,5.0,9.0,29,0.00,,,0.00,1037.000000,,2013-08-01 20:42:00,
2013-08-01 15:52:00,100.0,62.0,-100.00,West,272,5.0,9.0,29,0.00,,,0.00,1037.000000,,2013-08-01 20:52:00,
2013-08-01 15:58:00,100.0,62.0,-100.00,West,272,5.0,9.0,29,0.00,,,0.00,1037.000000,,2013-08-01 20:58:00,
2013-08-01 16:03:00,100.0,62.0,-100.00,West,272,5.0,9.0,29,0.00,,,0.00,1037.000000,,2013-08-01 21:03:00,
2013-08-01 16:35:00,100.0,60.0,-100.00,ESE,110,6.0,10.0,27,0.00,,,0.00,975.000000,,2013-08-01 21:35:00,
2013-08-01 16:43:00,100.0,60.0,-100.00,ESE,110,6.0,10.0,27,0.00,,,0.00,975.000000,,2013-08-01 21:43:00,
2013-08-01 16:53:00,100.0,60.0,-100.00,ESE,110,6.0,10.0,27,0.00,,,0.00,975.000000,,2013-08-01 21:53:00,
2013-08-01 17:06:00,100.0,60.0,-100.00,ESE,110,6.0,10.0,27,0.00,,,0.00,975.000000,,2013-08-01 22:06:00,
2013-08-01 17:07:00,99.0,62.0,-100.00,SSE,157,3.0,10.0,30,0.00,,,0.00,478.000000,,2013-08-01 22:07:00,
2013-08-01 17:36:00,99.0,62.0,-100.00,SSE,157,3.0,10.0,30,0.00,,,0.00,478.000000,,2013-08-01 22:36:00,
2013-08-01 17:48:00,99.0,62.0,-100.00,SSE,157,3.0,10.0,30,0.00,,,0.00,478.000000,,2013-08-01 22:48:00,
2013-08-01 18:07:00,101.0,61.0,-100.00,SSW,207,3.0,9.0,27,0.00,,,0.00,615.000000,,2013-08-01 23:07:00,
2013-08-01 18:33:00,101.0,61.0,-100.00,SSW,207,3.0,9.0,27,0.00,,,0.00,615.000000,,2013-08-01 23:33:00,
2013-08-01 18:52:00,101.0,61.0,-100.00,SSW,207,3.0,9.0,27,0.00,,,0.00,615.000000,,2013-08-01 23:52:00,
2013-08-01 19:00:00,101.0,61.0,-100.00,SSW,207,3.0,9.0,27,0.00,,,0.00,615.000000,,2013-08-02 00:00:00,
2013-08-01 19:40:00,99.0,62.0,-100.00,SE,127,2.0,14.0,30,0.00,,,0.00,331.000000,,2013-08-02 00:40:00,
2013-08-01 19:52:00,99.0,62.0,-100.00,SE,127,2.0,14.0,30,0.00,,,0.00,331.000000,,2013-08-02 00:52:00,
2013-08-01 20:00:00,99.0,62.0,-100.00,SE,127,2.0,14.0,30,0.00,,,0.00,331.000000,,2013-08-02 01:00:00,
2013-08-01 20:42:00,95.0,62.0,-100.00,ENE,70,2.0,5.0,34,0.00,,,0.00,118.000000,,2013-08-02 01:42:00,
2013-08-01 20:48:00,95.0,62.0,-100.00,ENE,70,2.0,5.0,34,0.00,,,0.00,118.000000,,2013-08-02 01:48:00,
2013-08-01 21:06:00,95.0,62.0,-100.00,ENE,70,2.0,5.0,34,0.00,,,0.00,118.000000,,2013-08-02 02:06:00,
2013-08-01 21:07:00,90.0,63.0,-100.00,NE,53,6.0,7.0,41,0.00,,,0.00,7.000000,,2013-08-02 02:07:00,
2013-08-01 21:36:00,90.0,63.0,-100.00,NE,53,6.0,7.0,41,0.00,,,0.00,7.000000,,2013-08-02 02:36:00,
2013-08-01 21:45:00,90.0,63.0,-100.00,NE,53,6.0,7.0,41,0.00,,,0.00,7.000000,,2013-08-02 02:45:00,
2013-08-01 21:53:00,90.0,63.0,-100.00,NE,53,6.0,7.0,41,0.00,,,0.00,7.000000,,2013-08-02 02:53:00,
2013-08-01 22:52:00,86.0,60.0,-100.00,East,85,5.0,8.0,42,0.00,,,0.00,0.000000,,2013-08-02 03:52:00,
2013-08-01 22:59:00,86.0,60.0,-100.00,East,85,5.0,8.0,42,0.00,,,0.00,0.000000,,2013-08-02 03:59:00,
2013-08-01 23:02:00,86.0,60.0,-100.00,East,85,5.0,8.0,42,0.00,,,0.00,0.000000,,2013-08-02 04:02:00,
2013-08-01 23:33:00,85.0,63.0,-100.00,ESE,118,5.0,9.0,48,0.00,,,0.00,0.000000,,2013-08-02 04:33:00,
2013-08-01 23:43:00,85.0,63.0,-100.00,ESE,118,5.0,9.0,48,0.00,,,0.00,0.000000,,2013-08-02 04:43:00,
2013-08-01 23:53:00,85.0,63.0,-100.00,ESE,118,5.0,9.0,48,0.00,,,0.00,0.000000,,2013-08-02 04:53:00,